1507075200.81,31509,13.44,73654.5,-4.43,-5.11,-5.11,0,*5D
1507075202.08,31510,13.44,73664.3,-4.43,-5.19,-5.11,0,*5D
1507075203.33,31511,13.44,73672.0,-4.41,-5.15,-5.19,0,*5A
1507075204.58,31512,13.44,73670.5,-4.41,-5.31,-5.31,0,*55
1507075205.77,31513,13.44,73674.8,-4.41,-5.43,-5.43,0,*54
1507075207.0,31514,13.44,73686.0,-4.41,-5.55,-5.61,0,*54
1507075208.25,31515,13.44,73674.3,-4.41,-5.61,-5.61,0,*52
1507075209.46,31516,13.44,73676.5,-4.43,-5.39,-5.47,0,*5A
1507075210.71,31517,13.44,73664.0,-4.43,-5.39,-5.27,0,*5D
1507075211.98,31518,13.44,73646.8,-4.43,-5.27,-5.27,0,*5D
1507075213.26,31519,13.44,73690.8,-4.43,-5.27,-5.27,0,*5C
1507075214.53,31520,13.44,73632.5,-4.43,-5.27,-5.27,0,*56
1507075215.78,31521,13.44,73620.0,-4.41,-5.19,-5.19,0,*55
1507075217.03,31522,13.44,73652.5,-4.41,-5.19,-5.19,0,*56
1507075218.27,31523,13.44,73622.8,-4.41,-5.19,-5.19,0,*57
1507075219.52,31524,13.5,73674.0,-4.41,-5.19,-5.15,0,*5C
1507075220.77,31525,13.44,73676.5,-4.41,-5.19,-5.19,0,*51
1507075222.02,31526,13.44,73684.5,-4.41,-5.19,-5.19,0,*52
1507075223.27,31527,13.44,73670.3,-4.41,-5.23,-5.19,0,*5A
1507075224.52,31528,13.44,73656.0,-4.41,-5.31,-5.23,0,*5F
1507075225.77,31529,13.44,73664.3,-4.41,-5.31,-5.31,0,*5D
1507075227.02,31530,13.44,73664.8,-4.41,-5.31,-5.31,0,*55
1507075228.27,31531,13.44,73658.8,-4.41,-5.23,-5.19,0,*5D
1507075229.54,31532,13.5,73656.8,-4.39,-5.23,-5.19,0,*51
1507075230.8,31533,13.44,73644.0,-4.41,-5.23,-5.23,0,*56
1507075232.07,31534,13.44,73628.8,-4.39,-5.23,-5.31,0,*5D
1507075233.34,31535,13.44,73648.5,-4.39,-5.23,-5.23,0,*5F
1507075234.58,31536,13.44,73654.5,-4.39,-5.31,-5.35,0,*58
1507075235.78,31537,13.44,73664.5,-4.41,-5.35,-5.43,0,*53
1507075236.97,31538,13.44,73678.0,-4.41,-5.47,-5.43,0,*59
1507075238.17,31539,13.44,73690.0,-4.41,-5.47,-5.47,0,*5C
1507075239.36,31540,13.44,73660.3,-4.41,-5.47,-5.47,0,*52
1507075240.55,31541,13.44,73658.3,-4.41,-5.43,-5.47,0,*57
1507075241.8,31542,13.44,73688.5,-4.41,-5.31,-5.31,0,*50
1507075243.05,31543,13.44,73618.5,-4.41,-5.23,-5.23,0,*51
1507075244.3,31544,13.44,73604.8,-4.41,-5.19,-5.19,0,*56
1507075245.57,31545,13.44,73596.5,-4.39,-5.19,-5.19,0,*58
1507075246.82,31546,13.44,73660.5,-4.41,-5.15,-5.19,0,*58
1507075248.07,31547,13.44,73658.5,-4.41,-5.19,-5.15,0,*59
1507075249.33,31548,13.44,73652.5,-4.39,-5.19,-5.19,0,*55
1507075250.6,31549,13.44,73654.5,-4.39,-5.15,-5.19,0,*58
1507075251.87,31550,13.44,73698.0,-4.39,-5.15,-5.15,0,*5C
1507075253.14,31551,13.44,73688.8,-4.39,-5.19,-5.19,0,*5D
1507075254.39,31552,13.44,73680.0,-4.41,-5.31,-5.23,0,*52
1507075255.65,31553,13.44,73674.3,-4.41,-5.23,-5.19,0,*59
1507075256.92,31554,13.44,73674.3,-4.39,-5.23,-5.19,0,*51
1507075258.19,31555,13.5,73694.3,-4.39,-5.23,-5.19,0,*50
1507075259.46,31556,13.44,73690.0,-4.39,-5.31,-5.23,0,*59
1507075260.7,31557,13.44,73698.8,-4.39,-5.35,-5.31,0,*5F
1507075261.91,31558,13.44,73684.8,-4.39,-5.35,-5.35,0,*54
1507075263.17,31559,13.44,73658.3,-4.41,-5.23,-5.23,0,*5A
1507075264.44,31560,13.44,73646.8,-4.39,-5.15,-5.23,0,*5A
1507075265.71,31561,13.44,73708.5,-4.39,-5.19,-5.19,0,*5E
1507075266.96,31562,13.44,73690.0,-4.41,-5.19,-5.19,0,*52
1507075268.23,31563,13.44,73678.3,-4.39,-5.15,-5.07,0,*5F
1507075269.48,31564,13.44,73682.3,-4.41,-5.19,-5.19,0,*54
1507075270.74,31565,13.44,73690.0,-4.39,-5.19,-5.31,0,*50
1507075272.02,31566,13.44,73684.3,-4.39,-5.23,-5.23,0,*59
1507075273.27,31567,13.44,73672.3,-4.41,-5.15,-5.19,0,*5B
1507075274.51,31568,13.44,73668.3,-4.37,-5.11,-5.11,0,*59
1507075275.75,31569,13.44,73680.5,-4.37,-5.11,-5.03,0,*5B
1507075276.99,31570,13.44,73662.3,-4.37,-5.11,-5.11,0,*50
1507075278.27,31571,13.44,73644.3,-4.35,-5.15,-5.15,0,*53
1507075279.52,31572,13.44,73642.0,-4.37,-5.15,-5.11,0,*56
1507075280.79,31573,13.44,73636.5,-4.39,-5.15,-5.15,0,*5D
1507075282.03,31574,13.44,73666.8,-4.37,-5.15,-5.11,0,*50
1507075283.28,31575,13.44,73656.0,-4.37,-5.15,-5.15,0,*55
1507075284.56,31576,13.44,73662.8,-4.35,-5.15,-5.15,0,*54
1507075285.81,31577,13.44,73672.5,-4.37,-5.27,-5.27,0,*57
1507075287.06,31578,13.44,73676.8,-4.37,-5.31,-5.27,0,*5F
1507075288.25,31579,13.44,73650.3,-4.37,-5.39,-5.39,0,*59
1507075289.47,31580,13.44,73630.8,-4.37,-5.31,-5.39,0,*57
1507075290.72,31581,13.44,73614.8,-4.35,-5.31,-5.39,0,*54
1507075291.97,31582,13.44,73648.3,-4.37,-5.31,-5.27,0,*5A
1507075293.22,31583,13.44,73632.5,-4.37,-5.31,-5.19,0,*56
1507075294.46,31584,13.44,73650.3,-4.37,-5.19,-5.19,0,*5B
1507075295.71,31585,13.44,73654.0,-4.37,-5.27,-5.27,0,*5A
1507075296.89,31586,13.44,73666.0,-4.37,-5.43,-5.43,0,*59
1507075298.11,31587,13.44,73672.8,-4.37,-5.55,-5.65,0,*5B
1507075299.36,31588,13.44,73650.8,-4.37,-5.65,-5.65,0,*57
1507075300.62,31589,13.44,73626.3,-4.39,-5.61,-5.69,0,*50
1507075301.83,31590,13.44,73622.8,-4.39,-5.47,-5.47,0,*50
1507075303.05,31591,13.44,73636.8,-4.39,-5.35,-5.43,0,*50
1507075304.26,31592,13.44,73614.3,-4.39,-5.35,-5.35,0,*52
1507075305.53,31593,13.44,73662.0,-4.39,-5.31,-5.31,0,*53
1507075306.8,31594,13.44,73692.8,-4.39,-5.23,-5.19,0,*5D
1507075308.07,31595,13.44,73692.3,-4.39,-5.23,-5.19,0,*5C
1507075309.32,31596,13.44,73674.5,-4.41,-5.23,-5.19,0,*50
1507075310.59,31597,13.44,73668.5,-4.39,-5.19,-5.15,0,*5B
1507075311.86,31598,13.5,73680.5,-4.39,-5.15,-5.15,0,*58
1507075313.13,31599,13.44,73660.3,-4.39,-5.15,-5.07,0,*5A
1507075314.4,31600,13.44,73672.0,-4.39,-5.15,-5.03,0,*5D
1507075315.68,31601,13.44,73672.8,-4.39,-5.07,-5.07,0,*5B
1507075316.92,31602,13.44,73690.0,-4.37,-5.15,-5.19,0,*5A
1507075318.15,31603,13.44,73690.8,-4.37,-5.39,-5.27,0,*58
1507075319.33,31604,13.44,73690.8,-4.37,-5.43,-5.51,0,*53
1507075320.53,31605,13.44,73688.8,-4.37,-5.55,-5.51,0,*55
1507075321.73,31606,13.44,73688.0,-4.37,-5.55,-5.51,0,*56
1507075323.0,31607,13.44,73682.0,-4.39,-5.61,-5.69,0,*55
1507075324.25,31608,13.44,73696.8,-4.39,-5.55,-5.61,0,*55
1507075325.51,31609,13.44,73692.0,-4.39,-5.61,-5.69,0,*5B
1507075326.75,31610,13.44,73694.0,-4.39,-5.61,-5.55,0,*5C
1507075327.94,31611,13.44,73656.3,-4.41,-5.43,-5.43,0,*55
1507075329.13,31612,13.44,73628.3,-4.41,-5.43,-5.43,0,*56
1507075330.32,31613,13.44,73664.3,-4.41,-5.43,-5.43,0,*57
1507075331.53,31614,13.44,73656.8,-4.39,-5.35,-5.35,0,*5F
1507075332.8,31615,13.44,73618.5,-4.39,-5.23,-5.23,0,*5E
1507075334.05,31616,13.44,73620.0,-4.41,-5.23,-5.31,0,*51
1507075335.31,31617,13.44,73642.0,-4.41,-5.23,-5.31,0,*50
1507075336.58,31618,13.44,73662.5,-4.39,-5.23,-5.23,0,*53
1507075337.77,31619,13.44,73660.3,-4.41,-5.43,-5.35,0,*5C
1507075338.98,31620,13.44,73660.3,-4.39,-5.43,-5.47,0,*5C
1507075340.17,31621,13.5,73640.0,-4.41,-5.35,-5.35,0,*56
1507075341.42,31622,13.44,73630.0,-4.41,-5.31,-5.31,0,*55
1507075342.7,31623,13.44,73656.3,-4.39,-5.23,-5.23,0,*5B
1507075343.97,31624,13.44,73662.8,-4.39,-5.15,-5.23,0,*59
1507075345.22,31625,13.44,73680.5,-4.41,-5.19,-5.19,0,*52
1507075346.47,31626,13.44,73678.0,-4.41,-5.31,-5.31,0,*51
1507075347.67,31627,13.44,73678.8,-4.39,-5.43,-5.43,0,*5F
1507075348.88,31628,13.44,73670.3,-4.41,-5.55,-5.55,0,*5F
1507075350.1,31629,13.44,73666.8,-4.39,-5.55,-5.47,0,*52
1507075351.29,31630,13.44,73674.5,-4.41,-5.35,-5.35,0,*56
1507075352.54,31631,13.44,73664.5,-4.41,-5.19,-5.23,0,*5E
1507075353.8,31632,13.44,73652.0,-4.41,-5.19,-5.23,0,*5D
1507075355.06,31633,13.5,73656.0,-4.39,-5.19,-5.15,0,*56
1507075356.33,31634,13.44,73658.3,-4.39,-5.19,-5.15,0,*51
1507075357.6,31635,13.44,73660.8,-4.39,-5.19,-5.19,0,*5C
1507075358.87,31636,13.44,73666.5,-4.39,-5.19,-5.31,0,*55
1507075360.09,31637,13.44,73660.3,-4.41,-5.31,-5.35,0,*55
1507075361.3,31638,13.44,73670.8,-4.39,-5.35,-5.35,0,*51
1507075362.57,31639,13.44,73670.3,-4.39,-5.31,-5.23,0,*53
1507075363.84,31640,13.44,73646.3,-4.39,-5.23,-5.19,0,*57
1507075365.11,31641,13.44,73642.0,-4.39,-5.15,-5.15,0,*5F
1507075366.35,31642,13.44,73626.8,-4.37,-5.11,-5.15,0,*56
1507075367.59,31643,13.44,73638.5,-4.37,-5.11,-5.15,0,*57
1507075368.84,31644,13.44,73640.8,-4.37,-5.11,-5.03,0,*57
1507075370.11,31645,13.44,73638.0,-4.39,-5.15,-5.07,0,*58
1507075371.38,31646,13.44,73614.5,-4.39,-5.15,-5.19,0,*54
1507075372.62,31647,13.44,73612.5,-4.37,-5.11,-5.11,0,*57
1507075373.86,31648,13.44,73634.0,-4.37,-5.11,-5.11,0,*58
1507075375.1,31649,13.44,73666.3,-4.37,-5.03,-5.11,0,*5A
1507075376.31,31650,13.44,73634.3,-4.37,-4.89,-4.99,0,*50
1507075377.55,31651,13.44,73626.8,-4.37,-4.85,-4.85,0,*50
1507075378.79,31652,13.44,73620.3,-4.37,-4.89,-4.89,0,*53
1507075380.07,31653,13.44,73624.5,-4.35,-5.11,-5.15,0,*54
1507075381.35,31654,13.44,73636.3,-4.35,-5.19,-5.15,0,*5B
1507075382.63,31655,13.44,73644.8,-4.35,-5.27,-5.27,0,*56
1507075383.92,31656,13.44,73618.0,-4.35,-5.31,-5.31,0,*55
1507075385.16,31657,13.44,73616.8,-4.37,-5.31,-5.31,0,*56
1507075386.41,31658,13.44,73638.3,-4.37,-5.19,-5.19,0,*59
1507075387.65,31659,13.44,73630.3,-4.37,-5.19,-5.27,0,*55
1507075388.94,31660,13.44,73628.3,-4.35,-5.27,-5.27,0,*50
1507075390.22,31661,13.44,73662.8,-4.35,-5.31,-5.27,0,*56
1507075391.44,31662,13.44,73650.8,-4.37,-5.31,-5.39,0,*58
1507075392.66,31663,13.44,73654.8,-4.35,-5.43,-5.39,0,*5E
1507075393.88,31664,13.44,73662.0,-4.37,-5.31,-5.39,0,*5E
1507075395.11,31665,13.44,73674.0,-4.35,-5.39,-5.39,0,*55
1507075396.3,31666,13.44,73668.0,-4.37,-5.51,-5.43,0,*57
1507075397.49,31667,13.44,73660.8,-4.37,-5.51,-5.51,0,*55
1507075398.68,31668,13.44,73650.5,-4.37,-5.39,-5.39,0,*5A
1507075399.93,31669,13.44,73658.5,-4.37,-5.31,-5.31,0,*5B
1507075401.12,31670,13.44,73664.3,-4.37,-5.39,-5.39,0,*53
1507075402.35,31671,13.44,73638.5,-4.39,-5.55,-5.55,0,*5C
1507075403.57,31672,13.44,73658.5,-4.39,-5.55,-5.47,0,*5C
1507075404.78,31673,13.44,73676.0,-4.37,-5.31,-5.43,0,*55
1507075406.06,31674,13.44,73648.5,-4.35,-5.19,-5.19,0,*55
1507075407.31,31675,13.44,73654.0,-4.37,-5.27,-5.27,0,*56
1507075408.53,31676,13.44,73658.0,-4.37,-5.31,-5.39,0,*5D
1507075409.75,31677,13.44,73660.0,-4.39,-5.55,-5.55,0,*5A
1507075410.98,31678,13.44,73660.0,-4.39,-5.55,-5.55,0,*55
1507075412.25,31679,13.44,73648.0,-4.39,-5.61,-5.61,0,*54
1507075413.45,31680,13.44,73656.5,-4.41,-5.55,-5.55,0,*5D
1507075414.65,31681,13.44,73658.3,-4.41,-5.55,-5.47,0,*5F
1507075415.92,31682,13.44,73658.3,-4.39,-5.61,-5.61,0,*50
1507075417.16,31683,13.44,73660.0,-4.41,-5.61,-5.69,0,*56
1507075418.42,31684,13.44,73658.0,-4.39,-5.73,-5.73,0,*56
1507075419.66,31685,13.44,73662.0,-4.41,-5.73,-5.81,0,*55
1507075420.9,31686,13.44,73666.3,-4.41,-5.81,-5.81,0,*5B
1507075422.15,31687,13.44,73660.0,-4.41,-5.81,-5.81,0,*5A
1507075423.4,31688,13.44,73660.0,-4.41,-5.81,-5.81,0,*55
1507075424.64,31689,13.44,73656.8,-4.43,-5.77,-5.97,0,*58
1507075425.9,31690,13.44,73652.0,-4.43,-5.77,-5.77,0,*5E
1507075427.15,31691,13.44,73650.0,-4.45,-5.69,-5.69,0,*59
1507075428.35,31692,13.44,73650.5,-4.45,-5.55,-5.55,0,*5A
1507075429.6,31693,13.44,73670.3,-4.43,-5.61,-5.51,0,*5E
1507075430.87,31694,13.44,73666.5,-4.43,-5.65,-5.61,0,*5E
1507075432.11,31695,13.44,73674.5,-4.45,-5.65,-5.69,0,*51
1507075433.37,31696,13.44,73688.8,-4.43,-5.73,-5.73,0,*58
1507075434.64,31697,13.44,73668.5,-4.43,-5.65,-5.65,0,*59
1507075435.86,31698,13.44,73646.0,-4.43,-5.39,-5.35,0,*5A
1507075437.11,31699,13.44,73630.3,-4.43,-5.35,-5.27,0,*54
1507075438.36,31700,13.44,73674.5,-4.45,-5.31,-5.31,0,*50
1507075439.63,31701,13.44,73646.5,-4.43,-5.27,-5.27,0,*57
1507075440.9,31702,13.44,73640.8,-4.43,-5.27,-5.27,0,*54
1507075442.17,31703,13.44,73672.3,-4.43,-5.27,-5.27,0,*55
1507075443.39,31704,13.44,73672.0,-4.43,-5.35,-5.39,0,*5E
1507075444.61,31705,13.44,73678.8,-4.43,-5.51,-5.51,0,*53
1507075445.86,31706,13.44,73684.8,-4.43,-5.61,-5.51,0,*53
1507075447.08,31707,13.44,73676.0,-4.43,-5.51,-5.51,0,*51
1507075448.29,31708,13.44,73636.0,-4.43,-5.39,-5.35,0,*52
1507075449.54,31709,13.44,73634.8,-4.45,-5.27,-5.27,0,*59
1507075450.81,31710,13.44,73630.5,-4.43,-5.19,-5.19,0,*57
1507075452.09,31711,13.44,73638.5,-4.43,-5.19,-5.19,0,*56
1507075453.33,31712,13.44,73646.3,-4.41,-5.19,-5.19,0,*57
1507075454.58,31713,13.44,73668.5,-4.41,-5.19,-5.19,0,*56
1507075455.83,31714,13.44,73678.5,-4.41,-5.19,-5.19,0,*51
1507075457.08,31715,13.44,73686.3,-4.41,-5.15,-5.15,0,*50
1507075458.32,31716,13.44,73676.5,-4.41,-4.89,-4.93,0,*58
1507075459.57,31717,13.44,73668.3,-4.41,-5.07,-5.07,0,*52
1507075460.82,31718,13.44,73678.3,-4.41,-5.15,-5.19,0,*51
1507075462.07,31719,13.44,73690.3,-4.41,-5.07,-5.15,0,*5F
1507075463.35,31720,13.44,73688.8,-4.39,-5.07,-5.03,0,*5D
1507075464.6,31721,13.44,73688.8,-4.41,-5.07,-5.03,0,*53
1507075465.87,31722,13.44,73670.0,-4.39,-5.19,-5.19,0,*5B
1507075467.11,31723,13.44,73630.0,-4.37,-5.19,-5.15,0,*58
1507075468.38,31724,13.44,73638.8,-4.39,-5.23,-5.19,0,*54
1507075469.65,31725,13.44,73612.3,-4.39,-5.23,-5.19,0,*55
1507075470.92,31726,13.44,73698.0,-4.39,-5.19,-5.15,0,*53
1507075472.19,31727,13.44,73682.5,-4.39,-5.03,-5.03,0,*5E
1507075473.47,31728,13.44,73670.3,-4.39,-5.07,-5.07,0,*51
1507075474.72,31729,13.44,73690.5,-4.37,-5.03,-5.03,0,*5E
1507075475.96,31730,13.44,73694.0,-4.37,-5.15,-5.15,0,*56
1507075477.24,31731,13.44,73686.0,-4.35,-5.11,-5.03,0,*56
1507075478.53,31732,13.44,73656.8,-4.35,-5.03,-5.03,0,*56
1507075479.81,31733,13.44,73648.5,-4.35,-5.03,-5.03,0,*57
1507075481.06,31734,13.44,73642.5,-4.35,-4.99,-5.03,0,*52
1507075482.32,31735,13.44,73632.5,-4.35,-5.03,-4.99,0,*53
1507075483.53,31736,13.44,73618.0,-4.35,-4.99,-4.99,0,*52
1507075484.8,31737,13.44,73658.8,-4.35,-4.77,-4.85,0,*5E
1507075486.05,31738,13.44,73682.3,-4.37,-4.89,-4.85,0,*52
1507075487.29,31739,13.44,73674.0,-4.35,-4.89,-4.99,0,*5C
1507075488.58,31740,13.44,73668.8,-4.35,-5.03,-5.03,0,*53
1507075489.86,31741,13.44,73670.0,-4.35,-5.11,-5.11,0,*52
1507075491.14,31742,13.44,73694.3,-4.35,-5.15,-5.15,0,*51
1507075492.42,31743,13.44,73690.3,-4.35,-5.15,-5.19,0,*5C
1507075493.7,31744,13.44,73670.0,-4.35,-5.15,-5.19,0,*5B
1507075494.98,31745,13.44,73672.5,-4.35,-5.19,-5.19,0,*56
1507075496.24,31746,13.44,73682.5,-4.33,-5.15,-5.15,0,*53
1507075497.53,31747,13.44,73700.8,-4.35,-5.15,-5.19,0,*58
1507075498.8,31748,13.44,73692.0,-4.35,-5.11,-5.11,0,*5B
1507075500.08,31749,13.44,73708.3,-4.35,-5.15,-5.15,0,*5A
1507075501.37,31750,13.44,73694.0,-4.35,-5.15,-5.15,0,*52
1507075502.65,31751,13.44,73688.5,-4.35,-5.15,-5.15,0,*53
1507075503.93,31752,13.44,73680.5,-4.35,-5.15,-5.15,0,*50
1507075505.18,31753,13.44,73708.0,-4.33,-5.11,-5.11,0,*57
1507075506.44,31754,13.44,73684.5,-4.33,-5.11,-5.11,0,*50
1507075507.7,31755,13.44,73648.3,-4.33,-5.07,-5.07,0,*51
1507075508.94,31756,13.44,73608.3,-4.33,-4.93,-4.93,0,*52
1507075510.19,31757,13.44,73652.8,-4.33,-4.93,-4.93,0,*53
1507075511.44,31758,13.44,73648.8,-4.33,-4.85,-4.81,0,*58
1507075512.69,31759,13.44,73674.3,-4.29,-4.81,-4.85,0,*52
1507075513.94,31760,13.44,73668.8,-4.29,-4.81,-4.81,0,*5C
1507075515.2,31761,13.44,73674.3,-4.29,-4.85,-4.85,0,*5D
1507075516.45,31762,13.44,73688.0,-4.29,-4.85,-4.85,0,*5E
1507075517.65,31763,13.44,73686.8,-4.29,-4.99,-4.99,0,*5F
1507075518.88,31764,13.44,73688.3,-4.29,-5.07,-4.99,0,*5E
1507075520.13,31765,13.44,73702.8,-4.29,-5.11,-5.11,0,*59
1507075521.39,31766,13.44,73700.3,-4.29,-5.11,-5.11,0,*5A
1507075522.65,31767,13.44,73682.3,-4.29,-5.23,-5.15,0,*5E
1507075523.92,31768,13.44,73692.0,-4.29,-5.23,-5.23,0,*54
1507075525.19,31769,13.44,73690.3,-4.29,-5.15,-5.23,0,*50
1507075526.45,31770,13.44,73688.5,-4.29,-5.15,-5.11,0,*59
1507075527.71,31771,13.44,73682.0,-4.29,-5.07,-5.11,0,*5B
1507075528.98,31772,13.44,73664.5,-4.29,-5.07,-5.07,0,*5F
1507075530.23,31773,13.44,73652.0,-4.29,-5.11,-5.11,0,*5E
1507075531.49,31774,13.44,73664.3,-4.29,-5.11,-5.11,0,*59
1507075532.74,31775,13.44,73664.0,-4.29,-5.11,-5.11,0,*58
1507075534.03,31776,13.5,73678.8,-4.27,-5.07,-5.07,0,*55
1507075535.29,31777,13.44,73688.5,-4.29,-5.11,-5.11,0,*5A
1507075536.54,31778,13.44,73702.5,-4.29,-5.11,-5.11,0,*55
1507075537.81,31779,13.44,73692.3,-4.29,-5.15,-5.11,0,*50
1507075539.04,31780,13.44,73688.0,-4.29,-5.35,-5.27,0,*51
1507075540.31,31781,13.44,73692.8,-4.29,-5.27,-5.23,0,*57
1507075541.59,31782,13.44,73692.5,-4.27,-5.11,-5.19,0,*56
1507075542.85,31783,13.44,73706.5,-4.29,-5.15,-5.15,0,*51
1507075544.12,31784,13.44,73688.5,-4.27,-4.93,-4.93,0,*58
1507075545.4,31785,13.44,73656.5,-4.27,-4.89,-4.89,0,*59
1507075546.67,31786,13.44,73660.8,-4.27,-4.77,-4.77,0,*5A
1507075547.94,31787,13.44,73658.8,-4.27,-4.77,-4.81,0,*52
1507075549.22,31788,13.44,73624.8,-4.27,-4.81,-4.81,0,*54
1507075550.46,31789,13.44,73614.8,-4.25,-4.81,-4.77,0,*5E
1507075551.71,31790,13.44,73628.5,-4.25,-4.81,-4.81,0,*5F
1507075552.96,31791,13.44,73618.3,-4.25,-4.81,-4.81,0,*5E
1507075554.21,31792,13.44,73676.0,-4.25,-4.81,-4.81,0,*5D
1507075555.46,31793,13.44,73660.0,-4.25,-4.81,-4.81,0,*5C
1507075556.71,31794,13.5,73686.5,-4.25,-4.93,-4.93,0,*5B
1507075557.97,31795,13.44,73690.3,-4.25,-5.07,-5.07,0,*5A
1507075559.23,31796,13.44,73698.5,-4.25,-5.31,-5.31,0,*59
1507075560.43,31797,13.44,73700.3,-4.25,-5.35,-5.35,0,*58
1507075561.66,31798,13.44,73688.8,-4.27,-5.35,-5.35,0,*55
1507075562.95,31799,13.44,73686.0,-4.27,-5.23,-5.23,0,*54
1507075564.24,31800,13.44,73696.3,-4.27,-5.23,-5.23,0,*5B
1507075565.5,31801,13.5,73700.8,-4.25,-5.23,-5.31,0,*5B
1507075566.78,31802,13.5,73708.8,-4.27,-5.19,-5.19,0,*59
1507075568.07,31803,13.44,73700.3,-4.27,-5.03,-5.03,0,*58
1507075569.35,31804,13.44,73706.5,-4.27,-4.89,-4.89,0,*5F
1507075570.6,31805,13.44,73688.3,-4.25,-4.89,-4.81,0,*54
1507075571.88,31806,13.44,73616.5,-4.27,-4.93,-4.89,0,*56
1507075573.15,31807,13.44,73632.8,-4.27,-4.93,-4.93,0,*5C
1507075574.4,31808,13.44,73632.0,-4.25,-5.03,-4.93,0,*59
1507075575.64,31809,13.44,73644.8,-4.25,-4.93,-4.93,0,*50
1507075576.89,31810,13.44,73660.3,-4.25,-4.93,-4.93,0,*58
1507075578.15,31811,13.5,73690.3,-4.25,-5.07,-5.03,0,*5D
1507075579.41,31812,13.44,73704.8,-4.25,-5.07,-5.07,0,*5A
1507075580.67,31813,13.44,73690.8,-4.25,-5.07,-5.11,0,*5C
1507075581.93,31814,13.44,73684.0,-4.25,-5.03,-5.03,0,*5C
1507075583.18,31815,13.44,73676.8,-4.25,-4.93,-4.89,0,*56
1507075584.44,31816,13.44,73678.3,-4.25,-4.89,-4.89,0,*5E
1507075585.69,31817,13.44,73692.5,-4.25,-4.89,-4.89,0,*5F
1507075586.95,31818,13.44,73700.8,-4.25,-5.03,-4.93,0,*58
1507075588.21,31819,13.44,73684.5,-4.25,-5.07,-5.07,0,*51
1507075589.49,31820,13.44,73694.0,-4.23,-5.03,-5.03,0,*5D
1507075590.78,31821,13.44,73690.3,-4.23,-5.03,-5.07,0,*58
1507075592.07,31822,13.44,73698.5,-4.23,-5.07,-5.07,0,*5F
1507075593.35,31823,13.44,73688.3,-4.23,-5.15,-5.15,0,*5E
1507075594.63,31824,13.44,73682.3,-4.23,-5.27,-5.27,0,*59
1507075595.91,31825,13.44,73684.0,-4.23,-5.31,-5.31,0,*58
1507075597.14,31826,13.5,73700.3,-4.25,-5.31,-5.35,0,*59
1507075598.35,31827,13.44,73694.5,-4.25,-5.35,-5.35,0,*5C
1507075599.57,31828,13.44,73694.8,-4.27,-5.35,-5.43,0,*50
1507075600.77,31829,13.44,73706.0,-4.25,-5.35,-5.43,0,*53
1507075602.0,31830,13.44,73692.3,-4.27,-5.43,-5.43,0,*58
1507075603.22,31831,13.44,73700.0,-4.27,-5.43,-5.43,0,*59
1507075604.48,31832,13.44,73698.5,-4.27,-5.31,-5.35,0,*5E
1507075605.76,31833,13.5,73714.0,-4.27,-5.23,-5.31,0,*58
1507075607.04,31834,13.44,73700.5,-4.27,-5.11,-5.11,0,*5C
1507075608.33,31835,13.44,73698.0,-4.27,-5.03,-5.07,0,*59
1507075609.61,31836,13.44,73662.3,-4.27,-4.89,-4.89,0,*5E
1507075610.89,31837,13.44,73688.5,-4.27,-4.89,-4.89,0,*5F
1507075612.17,31838,13.5,73692.8,-4.27,-4.89,-4.77,0,*51
1507075613.41,31839,13.44,73690.8,-4.25,-4.81,-4.77,0,*5A
1507075614.66,31840,13.44,73690.3,-4.25,-4.77,-4.81,0,*54
1507075615.9,31841,13.44,73694.5,-4.25,-4.77,-4.77,0,*5C
1507075617.15,31842,13.44,73692.0,-4.25,-4.81,-4.81,0,*5F
1507075618.4,31843,13.44,73684.0,-4.25,-4.89,-4.93,0,*55
1507075619.68,31844,13.5,73680.5,-4.23,-4.89,-4.89,0,*5F
1507075620.97,31845,13.44,73684.0,-4.23,-5.03,-5.03,0,*5E
1507075622.25,31846,13.44,73700.0,-4.23,-5.03,-5.03,0,*5D
1507075623.54,31847,13.5,73700.0,-4.23,-5.03,-5.03,0,*5C
1507075624.82,31848,13.5,73682.8,-4.23,-5.03,-5.03,0,*53
1507075626.06,31849,13.44,73670.3,-4.21,-5.03,-4.99,0,*52
1507075627.25,31850,13.44,73698.5,-4.21,-4.99,-4.99,0,*58
1507075628.48,31851,13.44,73688.0,-4.21,-4.99,-4.85,0,*54
1507075629.76,31852,13.5,73640.3,-4.23,-4.73,-4.85,0,*51
1507075631.03,31853,13.44,73668.3,-4.23,-4.73,-4.73,0,*59
1507075632.3,31854,13.44,73648.3,-4.23,-4.73,-4.73,0,*5E
1507075633.53,31855,13.5,73644.0,-4.21,-4.65,-4.73,0,*5A
1507075634.78,31856,13.5,73662.0,-4.21,-4.77,-4.77,0,*5E
1507075636.03,31857,13.44,73674.5,-4.21,-4.73,-4.77,0,*5B
1507075637.28,31858,13.44,73704.8,-4.21,-4.73,-4.73,0,*50
1507075638.52,31859,13.44,73696.8,-4.21,-4.77,-4.73,0,*55
1507075639.77,31860,13.5,73694.3,-4.21,-4.77,-4.73,0,*5F
1507075641.02,31861,13.44,73654.3,-4.21,-4.77,-4.77,0,*5A
1507075642.29,31862,13.44,73690.5,-4.19,-4.73,-4.69,0,*59
1507075643.57,31863,13.44,73706.5,-4.19,-4.73,-4.69,0,*58
1507075644.82,31864,13.5,73702.0,-4.19,-4.65,-4.73,0,*53
1507075646.1,31865,13.5,73706.0,-4.19,-4.81,-4.73,0,*58
1507075647.35,31866,13.44,73694.5,-4.17,-4.81,-4.69,0,*5E
1507075648.62,31867,13.44,73696.0,-4.19,-4.81,-4.73,0,*5A
1507075649.9,31868,13.44,73698.8,-4.19,-4.81,-4.77,0,*51
1507075651.15,31869,13.5,73694.3,-4.17,-4.89,-4.81,0,*5F
1507075652.4,31870,13.44,73690.8,-4.19,-4.99,-4.93,0,*5B
1507075653.65,31871,13.44,73694.8,-4.17,-4.93,-4.93,0,*5E
1507075654.87,31872,13.5,73692.5,-4.19,-4.99,-4.99,0,*53
1507075656.14,31873,13.5,73690.0,-4.19,-4.93,-4.93,0,*52
1507075657.41,31874,13.5,73690.3,-4.19,-4.93,-4.93,0,*55
1507075658.66,31875,13.5,73694.8,-4.17,-4.93,-4.85,0,*5D
1507075659.91,31876,13.5,73684.0,-4.19,-4.99,-4.93,0,*5D
1507075661.16,31877,13.5,73680.8,-4.19,-4.99,-4.85,0,*5B
1507075662.43,31878,13.5,73682.8,-4.19,-4.93,-4.81,0,*5A
1507075663.69,31879,13.44,73676.3,-4.17,-4.89,-4.81,0,*5E
1507075664.94,31880,13.5,73690.5,-4.17,-4.81,-4.89,0,*58
1507075666.19,31881,13.44,73688.5,-4.17,-4.93,-4.89,0,*5A
1507075667.44,31882,13.5,73696.3,-4.17,-4.93,-4.93,0,*52
1507075668.68,31883,13.5,73696.8,-4.17,-4.93,-4.93,0,*53
1507075669.94,31884,13.5,73694.8,-4.19,-4.99,-5.11,0,*5B
1507075671.21,31885,13.44,73692.0,-4.19,-5.11,-5.11,0,*5B
1507075672.45,31886,13.5,73692.8,-4.17,-4.99,-5.07,0,*50
1507075673.73,31887,13.5,73696.5,-4.19,-5.11,-5.03,0,*5A
1507075674.92,31888,13.5,73690.3,-4.17,-4.99,-4.99,0,*58
1507075676.18,31889,13.44,73688.5,-4.19,-5.03,-4.99,0,*55
1507075677.43,31890,13.44,73688.0,-4.19,-4.99,-4.93,0,*55
1507075678.68,31891,13.44,73654.8,-4.17,-4.89,-4.89,0,*50
1507075679.94,31892,13.44,73656.8,-4.17,-4.89,-4.89,0,*53
1507075681.2,31893,13.44,73670.8,-4.17,-4.81,-4.81,0,*52
1507075682.45,31894,13.5,73656.5,-4.17,-4.85,-4.85,0,*55
1507075683.7,31895,13.44,73662.8,-4.17,-4.81,-4.81,0,*54
1507075684.94,31896,13.44,73668.5,-4.17,-4.77,-4.77,0,*57
1507075686.19,31897,13.44,73664.8,-4.17,-4.77,-4.77,0,*56
1507075687.44,31898,13.5,73686.0,-4.17,-4.77,-4.81,0,*50
1507075688.69,31899,13.5,73704.5,-4.17,-4.77,-4.77,0,*58
1507075689.94,31900,13.5,73700.8,-4.17,-4.81,-4.89,0,*51
1507075691.19,31901,13.44,73698.0,-4.17,-4.77,-4.77,0,*58
1507075692.46,31902,13.5,73676.3,-4.15,-4.77,-4.77,0,*59
1507075693.73,31903,13.5,73686.3,-4.15,-4.77,-4.77,0,*58
1507075695.0,31904,13.44,73600.5,-4.15,-4.81,-4.77,0,*56
1507075696.25,31905,13.5,73608.3,-4.15,-4.77,-4.65,0,*5D
1507075697.5,31906,13.5,73644.3,-4.15,-4.69,-4.65,0,*51
1507075698.73,31907,13.5,73638.8,-4.15,-4.65,-4.57,0,*5D
1507075699.93,31908,13.5,73632.3,-4.13,-4.53,-4.49,0,*5E
1507075701.16,31909,13.44,73682.8,-4.15,-4.53,-4.49,0,*59
1507075702.36,31910,13.5,73700.5,-4.13,-4.49,-4.41,0,*54
1507075703.58,31911,13.5,73678.3,-4.11,-4.41,-4.49,0,*57
1507075704.8,31912,13.44,73680.8,-4.11,-4.49,-4.49,0,*5C
1507075706.03,31913,13.5,73680.3,-4.11,-4.65,-4.61,0,*59
1507075707.26,31914,13.5,73688.8,-4.11,-4.65,-4.65,0,*5A
1507075708.51,31915,13.5,73688.8,-4.11,-4.73,-4.65,0,*5C
1507075709.75,31916,13.5,73700.0,-4.09,-4.73,-4.77,0,*55
1507075711.02,31917,13.5,73710.3,-4.11,-4.73,-4.73,0,*59
1507075712.3,31918,13.5,73690.3,-4.11,-4.89,-4.89,0,*56
1507075713.55,31919,13.5,73688.8,-4.09,-4.89,-4.85,0,*52
1507075714.82,31920,13.5,73698.3,-4.11,-4.85,-4.85,0,*5D
1507075716.09,31921,13.5,73696.8,-4.11,-4.85,-4.85,0,*5C
1507075717.37,31922,13.5,73694.0,-4.11,-4.89,-4.89,0,*5F
1507075718.64,31923,13.5,73696.0,-4.11,-4.85,-4.85,0,*5E